Regional Weather Roundup
Issued by NWS

Home | Current Version | Previous Version | Text Only | Print | Product List | Glossary On
Versions: 1 2 3 4 5 6 7 8 9 10 11 12 13 14 15 16 17 18 19 20 21 22 23 24 25 26 27 28 29 30 31 32 33 34 35 36 37 38 39 40 41 42 43 44 45 46 47 48 49 50
000
ASUS43 KDMX 290701
RWRIA

WEATHER ROUNDUP FOR IOWA
NATIONAL WEATHER SERVICE DES MOINES IA
200 AM CDT WED MAR 29 2017

NOTE: "FAIR" INDICATES FEW OR NO CLOUDS BELOW 12,000 FEET WITH NO
SIGNIFICANT WEATHER AND/OR OBSTRUCTIONS TO VISIBILITY.

* - THESE STATIONS ARE NOT NWS STATIONS...THUS NOT UNDER NWS
QUALITY CONTROL.  THEY ALSO DO NOT REPORT WEATHER SUCH
AS PRECIPITATION OR FOG.

IAZ001>003-012>014-020>022-031>034-043>046-290800-
   NORTHWEST IOWA

CITY           SKY/WX    TMP DP  RH WIND       PRES   REMARKS
CARROLL *      CLOUDY    45  45 100 NE5       30.12S
CHEROKEE *     CLOUDY    44  42  95 CALM      30.14R
DENISON *      CLOUDY    45  43  93 E5        30.14S
LE MARS *      CLOUDY    45  41  87 CALM      30.15R
ORANGE CITY *  CLOUDY    45  43  93 CALM      30.14R
SHELDON *      MOCLDY    39  37  93 CALM      30.13R
SIOUX CITY     CLOUDY    47  42  83 E7        30.13R
SPENCER        MOCLDY    41  39  93 E6        30.14S
STORM LAKE *   CLOUDY    43  41  93 E7        30.13R
$$

IAZ055>058-069>071-079>083-090>094-290800-
   SOUTHWEST IOWA

CITY           SKY/WX    TMP DP  RH WIND       PRES   REMARKS
ATLANTIC *     CLOUDY    48  45  87 NE6       30.10F
AUDUBON *      CLOUDY    46  43  87 E6        30.12S
CLARINDA *     CLOUDY    50  46  87 NE6       30.09S
COUNCIL BLFS * CLOUDY    46  46 100 NE8       30.08F
CRESTON *      CLOUDY    46  45  93 E12       30.09R
HARLAN  *      CLOUDY    48  46  93 NE8       30.14S
LAMONI         CLOUDY    49  45  86 E10       30.06F
RED OAK *      CLOUDY    48  45  87 NE9       30.08S
SHENANDOAH *   LGT RAIN  48  46  93 NE9       30.06F
$$

IAZ047>049-059>061-072>074-084-290800-
   CENTRAL IOWA

CITY           SKY/WX    TMP DP  RH WIND       PRES   REMARKS
AMES           CLOUDY    45  44  97 E5        30.12S
ANKENY *       CLOUDY    46  43  87 E9        30.12S
BOONE *        MOCLDY    43  43 100 E7        30.12R
CHARITON *     CLOUDY    48  45  87 E10       30.09R
DES MOINES     CLOUDY    49  44  83 E8        30.11R
GRINNELL*      CLOUDY    42  39  90 E10       30.13F
MARSHALLTOWN   CLOUDY    42  40  92 E10       30.13F
NEWTON *       CLOUDY    43  41  93 E9        30.11F
PELLA *        CLOUDY    44  41  88 E7        30.13S
PERRY *          N/A     47  45  91 NE5       30.12R
$$

IAZ004>006-015-016-023>025-035-036-290800-
   NORTH CENTRAL IOWA

CITY           SKY/WX    TMP DP  RH WIND       PRES   REMARKS
ALGONA *       MOCLDY    45  43  93 NE5       30.14F
CLARION *      CLOUDY    43  43 100 E8        30.14F
ESTHERVILLE    CLOUDY    39  37  92 E6        30.14F WCI  35
FORT DODGE *   CLOUDY    45  39  81 E7        30.14R
MASON CITY     CLOUDY    38  35  89 NE5       30.17F WCI  34
FOREST CITY *    N/A     37  34  87 CALM      30.16F
WEBSTER CITY * CLOUDY    45  41  87 E9        30.11F
IOWA FALLS *     N/A     43  40  88 E7        30.15F
$$

IAZ007>011-017>019-026>030-037>042-050>054-066-290800-
   NORTHEAST IOWA

CITY           SKY/WX    TMP DP  RH WIND       PRES   REMARKS
CEDAR RAPIDS   PTCLDY    39  39 100 NE8       30.16R WCI  33
CHARLES CITY * CLOUDY    43  41  93 E6        30.18S
CLINTON *      CLEAR     38  36  92 E13       30.20R WCI  30
DECORAH *      CLOUDY    45  37  76 E8        30.18S
DUBUQUE        PTCLDY    40  36  86 E7        30.18S
MONTICELLO *   PTCLDY    39  37  93 NE5       30.18R
OELWEIN *      PTCLDY    39  39 100 NE5       30.18S
WATERLOO       PTCLDY    38  36  92 E5        30.17S WCI  34
$$

IAZ064-065-067-068-078-290800-
   EAST CENTRAL IOWA

CITY           SKY/WX    TMP DP  RH WIND       PRES   REMARKS
DAVENPORT      CLOUDY    41  38  89 E10       30.18R
IOWA CITY      PTCLDY    41  38  89 NE6       30.17S
MUSCATINE *    MOCLDY    39  37  93 NE5       30.17S
QUAD CITIES    MOCLDY    42  38  85 E10       30.17R
$$

IAZ062-063-075>077-085>089-095>099-290800-
   SOUTHEAST IOWA

CITY           SKY/WX    TMP DP  RH WIND       PRES   REMARKS
BURLINGTON     PTCLDY    43  41  93 E6        30.14R
FAIRFIELD *    PTCLDY    43  39  87 E8        30.12F
FORT MADISON * PTCLDY    45  41  87 E5        30.14F
KEOKUK *       CLOUDY    46  43  87 E13       30.12F
OSKALOOSA *      N/A     42  40  91 E9        30.12S
CENTERVILLE *  CLOUDY    46  45  93 E8G17     30.10F
OTTUMWA        MOCLDY    45  42  89 E9        30.11S
WASHINGTON *   CLOUDY    39  39 100 E8        30.14F WCI  34
$$

ABBREVIATIONS USED IN REMARKS
   TC - TEMPERATURES IN CELSIUS
  WCI - WIND CHILL INDEX
   HX - HEAT INDEX
  VSB - VISIBILITY
$$





USA.gov is the U.S. government's official web portal to all federal, state and local government web resources and services.